Location: Unspecified
(29.0040°N, 0.0000°E)
Time: 21:36:56
(UTC+00:00)

ISS - Pass Details

Date: 23 November 2019
Orbit: 411 x 421 km, 51.6° (Epoch: 08 December)

Event Time Altitude Azimuth Distance (km) Brightness Sun altitude
Rises 18:08:29 0° 265° (W) 2,343 1.8 -14.3°
Reaches altitude 10° 18:11:29 10° 295° (WNW) 1,487 -0.2 -15.0°
Maximum altitude 18:13:06 13° 324° (NW) 1,327 -1.0 -15.3°
Drops below altitude 10° 18:14:42 10° 353° (N) 1,492 -1.0 -15.7°
Enters shadow 18:15:34 - 5° (N) 1,686 -0.9 -15.8°
